| time (UTC) | temp F | wind direction | speed MPH | gust MPH | rain 1hr in | rain 24hr in | rain mn in | humidity % | barometer mb |
| 20260904001016 | 64 | 186 | 0.0 | 4.0 | 0.00 | 0.01 | 0.00 | 63 | 1010.9 |
| 20260904000515 | 64 | 93 | 2.0 | 4.0 | 0.00 | 0.01 | 0.00 | 62 | 1010.9 |
| 20260904000040 | 64 | 202 | 1.0 | 3.0 | 0.00 | 0.02 | 0.00 | 63 | 1010.9 |
| 20260903235514 | 64 | 200 | 0.0 | 2.0 | 0.00 | 0.03 | 0.00 | 67 | 1010.9 |
| 20260903235012 | 64 | 51 | 0.0 | 4.0 | 0.00 | 0.04 | 0.00 | 64 | 1010.9 |
| 20260903234539 | 64 | 51 | 0.0 | 4.0 | 0.00 | 0.05 | 0.00 | 64 | 1011.0 |
| 20260903234014 | 64 | 51 | 0.0 | 2.0 | 0.00 | 0.06 | 0.00 | 63 | 1011.1 |
| 20260903233512 | 64 | 178 | 1.0 | 2.0 | 0.00 | 0.07 | 0.00 | 63 | 1011.1 |
| 20260903233030 | 64 | 51 | 0.0 | 2.0 | 0.00 | 0.08 | 0.00 | 64 | 1011.1 |
| 20260903232513 | 64 | 51 | 0.0 | 2.0 | 0.00 | 0.09 | 0.00 | 62 | 1011.0 |
| 20260903232016 | 64 | 51 | 0.0 | 2.0 | 0.00 | 0.09 | 0.00 | 62 | 1011.1 |
| 20260903231528 | 64 | 120 | 0.0 | 4.0 | 0.00 | 0.09 | 0.00 | 64 | 1011.1 |
| 20260903231014 | 64 | 309 | 0.0 | 4.0 | 0.00 | 0.10 | 0.00 | 63 | 1011.1 |
| 20260903230514 | 64 | 110 | 1.0 | 5.0 | 0.00 | 0.10 | 0.00 | 61 | 1011.1 |
| 20260903230041 | 64 | 132 | 2.0 | 5.0 | 0.00 | 0.10 | 0.00 | 58 | 1011.1 |
| 20260903225516 | 65 | 146 | 1.0 | 3.0 | 0.00 | 0.10 | 0.00 | 61 | 1011.2 |
| 20260903225012 | 65 | 9 | 0.0 | 5.0 | 0.00 | 0.10 | 0.00 | 58 | 1011.2 |
| 20260903224528 | 65 | 9 | 1.0 | 5.0 | 0.00 | 0.10 | 0.00 | 57 | 1011.2 |
| 20260903224016 | 65 | 129 | 1.0 | 4.0 | 0.00 | 0.10 | 0.00 | 58 | 1011.3 |
| 20260903223514 | 64 | 137 | 1.0 | 4.0 | 0.00 | 0.10 | 0.00 | 67 | 1011.2 |
| 20260903223029 | 64 | 239 | 1.0 | 4.0 | 0.00 | 0.10 | 0.00 | 59 | 1011.2 |
| 20260903222512 | 64 | 131 | 0.0 | 3.0 | 0.00 | 0.10 | 0.00 | 64 | 1011.2 |
| 20260903222014 | 64 | 68 | 1.0 | 4.0 | 0.00 | 0.10 | 0.00 | 62 | 1011.2 |
| 20260903221531 | 64 | 34 | 0.0 | 6.0 | 0.00 | 0.10 | 0.00 | 65 | 1011.2 |
| 20260903221012 | 64 | 137 | 1.0 | 6.0 | 0.00 | 0.10 | 0.00 | 61 | 1011.2 |
| 20260903220512 | 64 | 93 | 2.0 | 5.0 | 0.00 | 0.10 | 0.00 | 58 | 1011.2 |
| 20260903220034 | 65 | 9 | 1.0 | 4.0 | 0.00 | 0.10 | 0.00 | 58 | 1011.2 |
| 20260903215514 | 65 | 120 | 1.0 | 4.0 | 0.00 | 0.10 | 0.00 | 63 | 1011.2 |
| 20260903215017 | 64 | 153 | 1.0 | 4.0 | 0.00 | 0.10 | 0.00 | 63 | 1011.3 |
| 20260903214536 | 64 | 93 | 1.0 | 4.0 | 0.00 | 0.10 | 0.00 | 65 | 1011.2 |
| 20260903214016 | 64 | 215 | 1.0 | 4.0 | 0.00 | 0.10 | 0.00 | 66 | 1011.3 |
| 20260903213514 | 64 | 325 | 1.0 | 4.0 | 0.00 | 0.10 | 0.00 | 64 | 1011.3 |
| 20260903213033 | 64 | 43 | 2.0 | 4.0 | 0.00 | 0.10 | 0.00 | 66 | 1011.3 |
| 20260903212515 | 64 | 26 | 0.0 | 3.0 | 0.00 | 0.10 | 0.00 | 68 | 1011.4 |
| 20260903212015 | 64 | 61 | 0.0 | 4.0 | 0.00 | 0.10 | 0.00 | 67 | 1011.4 |
| 20260903211507 | 64 | 43 | 1.0 | 4.0 | 0.00 | 0.10 | 0.00 | 67 | 1011.4 |
| 20260903211003 | 64 | 68 | 2.0 | 6.0 | 0.00 | 0.10 | 0.00 | 69 | 1011.4 |
| 20260903210503 | 64 | 59 | 0.0 | 6.0 | 0.00 | 0.10 | 0.00 | 68 | 1011.4 |
| 20260903210005 | 64 | 55 | 1.0 | 5.0 | 0.00 | 0.10 | 0.00 | 69 | 1011.4 |
| 20260903205502 | 63 | 41 | 2.0 | 5.0 | 0.00 | 0.10 | 0.00 | 68 | 1011.3 |
| 20260903205003 | 63 | 48 | 2.0 | 3.0 | 0.00 | 0.10 | 0.00 | 67 | 1011.3 |
| 20260903204507 | 63 | 9 | 0.0 | 3.0 | 0.00 | 0.10 | 0.00 | 69 | 1011.3 |
| 20260903204006 | 62 | 22 | 0.0 | 3.0 | 0.00 | 0.10 | 0.00 | 70 | 1011.3 |
| 20260903203507 | 62 | 59 | 1.0 | 3.0 | 0.00 | 0.10 | 0.00 | 69 | 1011.3 |
| 20260903203008 | 62 | 178 | 0.0 | 2.0 | 0.00 | 0.10 | 0.00 | 71 | 1011.4 |
| 20260903202506 | 62 | 93 | 0.0 | 3.0 | 0.00 | 0.10 | 0.00 | 74 | 1011.4 |
| 20260903202003 | 61 | 44 | 1.0 | 3.0 | 0.00 | 0.10 | 0.00 | 74 | 1011.3 |
| 20260903201506 | 61 | 65 | 1.0 | 3.0 | 0.00 | 0.10 | 0.00 | 71 | 1011.3 |
| 20260903201001 | 61 | 61 | 1.0 | 5.0 | 0.00 | 0.10 | 0.00 | 71 | 1011.3 |
| 20260903200503 | 61 | 57 | 2.0 | 5.0 | 0.00 | 0.10 | 0.00 | 73 | 1011.4 |
| 20260903200031 | 61 | 47 | 1.0 | 4.0 | 0.00 | 0.10 | 0.00 | 75 | 1011.4 |
| 20260903195513 | 60 | 57 | 1.0 | 3.0 | 0.00 | 0.10 | 0.00 | 74 | 1011.4 |
| 20260903195014 | 60 | 51 | 1.0 | 3.0 | 0.00 | 0.10 | 0.00 | 74 | 1011.4 |
| 20260903194528 | 61 | 34 | 0.0 | 2.0 | 0.00 | 0.10 | 0.00 | 73 | 1011.4 |
| 20260903194017 | 61 | 178 | 0.0 | 1.0 | 0.00 | 0.10 | 0.00 | 74 | 1011.3 |
| 20260903193519 | 61 | 93 | 0.0 | 1.0 | 0.00 | 0.10 | 0.00 | 75 | 1011.2 |
| 20260903193037 | 61 | 120 | 0.0 | 2.0 | 0.00 | 0.10 | 0.00 | 74 | 1011.2 |
| 20260903192514 | 61 | 93 | 0.0 | 4.0 | 0.00 | 0.10 | 0.00 | 70 | 1011.1 |
| 20260903192013 | 61 | 9 | 0.0 | 4.0 | 0.00 | 0.10 | 0.00 | 73 | 1011.0 |
| 20260903191529 | 61 | 212 | 1.0 | 3.0 | 0.00 | 0.10 | 0.00 | 73 | 1011.0 |
| 20260903191015 | 61 | 265 | 0.0 | 5.0 | 0.00 | 0.10 | 0.00 | 74 | 1011.0 |
| 20260903190512 | 61 | 93 | 1.0 | 5.0 | 0.00 | 0.10 | 0.00 | 73 | 1011.0 |
| 20260903190030 | 61 | 137 | 0.0 | 2.0 | 0.00 | 0.10 | 0.00 | 72 | 1010.9 |
| 20260903185513 | 61 | 205 | 0.0 | 2.0 | 0.00 | 0.10 | 0.00 | 74 | 1011.0 |
| 20260903185015 | 61 | 309 | 0.0 | 2.0 | 0.00 | 0.10 | 0.00 | 74 | 1010.9 |
| 20260903184531 | 61 | 309 | 0.0 | 5.0 | 0.00 | 0.10 | 0.00 | 75 | 1010.8 |
| 20260903184015 | 61 | 265 | 0.0 | 5.0 | 0.00 | 0.10 | 0.00 | 72 | 1010.8 |
| 20260903183513 | 61 | 162 | 0.0 | 5.0 | 0.00 | 0.10 | 0.00 | 73 | 1010.8 |
| 20260903183038 | 61 | 120 | 0.0 | 7.0 | 0.00 | 0.10 | 0.00 | 75 | 1010.7 |
| 20260903182519 | 61 | 137 | 3.0 | 6.0 | 0.00 | 0.10 | 0.00 | 70 | 1010.7 |
| 20260903182016 | 61 | 171 | 1.0 | 4.0 | 0.00 | 0.10 | 0.00 | 74 | 1010.7 |
| 20260903181527 | 61 | 319 | 0.0 | 5.0 | 0.00 | 0.10 | 0.00 | 76 | 1010.7 |
| 20260903181017 | 61 | 51 | 1.0 | 5.0 | 0.00 | 0.10 | 0.00 | 73 | 1010.6 |
| 20260903180517 | 61 | 144 | 1.0 | 5.0 | 0.00 | 0.10 | 0.00 | 73 | 1010.6 |
| 20260903180029 | 60 | 141 | 2.0 | 5.0 | 0.00 | 0.10 | 0.00 | 71 | 1010.6 |
| 20260903175514 | 60 | 93 | 0.0 | 5.0 | 0.00 | 0.10 | 0.00 | 78 | 1010.5 |
| 20260903175012 | 60 | 153 | 1.0 | 5.0 | 0.00 | 0.10 | 0.00 | 73 | 1010.5 |
| 20260903174531 | 60 | 153 | 1.0 | 5.0 | 0.00 | 0.10 | 0.00 | 79 | 1010.4 |
| 20260903174014 | 60 | 139 | 2.0 | 7.0 | 0.00 | 0.10 | 0.00 | 80 | 1010.4 |
| 20260903173513 | 60 | 153 | 2.0 | 7.0 | 0.00 | 0.10 | 0.00 | 78 | 1010.4 |
| 20260903173030 | 59 | 173 | 1.0 | 4.0 | 0.00 | 0.10 | 0.00 | 86 | 1010.4 |
| 20260903172518 | 59 | 68 | 0.0 | 4.0 | 0.00 | 0.10 | 0.00 | 85 | 1010.6 |
| 20260903172016 | 58 | 171 | 0.0 | 4.0 | 0.00 | 0.10 | 0.00 | 86 | 1010.6 |
| 20260903171550 | 58 | 46 | 1.0 | 4.0 | 0.00 | 0.10 | 0.00 | 84 | 1010.6 |
| 20260903171014 | 57 | 309 | 0.0 | 2.0 | 0.00 | 0.10 | 0.00 | 86 | 1010.5 |
| 20260903170514 | 57 | 41 | 0.0 | 2.0 | 0.00 | 0.10 | 0.00 | 85 | 1010.5 |
| 20260903170033 | 57 | 93 | 0.0 | 6.0 | 0.00 | 0.10 | 0.00 | 84 | 1010.5 |
| 20260903165514 | 58 | 235 | 1.0 | 6.0 | 0.00 | 0.10 | 0.00 | 80 | 1010.6 |
| 20260903165015 | 58 | 170 | 2.0 | 7.0 | 0.00 | 0.10 | 0.00 | 79 | 1010.6 |
| 20260903164532 | 58 | 187 | 1.0 | 7.0 | 0.00 | 0.10 | 0.00 | 81 | 1010.4 |
| 20260903164017 | 58 | 150 | 1.0 | 4.0 | 0.00 | 0.10 | 0.00 | 82 | 1010.4 |
| 20260903163518 | 57 | 137 | 2.0 | 4.0 | 0.00 | 0.10 | 0.00 | 84 | 1010.4 |
| 20260903163029 | 57 | 126 | 1.0 | 3.0 | 0.00 | 0.10 | 0.00 | 88 | 1010.5 |
| 20260903162518 | 57 | 249 | 0.0 | 2.0 | 0.00 | 0.10 | 0.00 | 91 | 1010.5 |
| 20260903162016 | 57 | 111 | 0.0 | 2.0 | 0.00 | 0.10 | 0.00 | 89 | 1010.6 |
| 20260903161532 | 56 | 51 | 0.0 | 2.0 | 0.00 | 0.10 | 0.00 | 89 | 1010.5 |
| 20260903161017 | 56 | 9 | 0.0 | 3.0 | 0.00 | 0.10 | 0.00 | 91 | 1010.5 |
| 20260903160513 | 56 | 34 | 0.0 | 3.0 | 0.00 | 0.10 | 0.00 | 89 | 1010.6 |
| 20260903160033 | 56 | 184 | 1.0 | 3.0 | 0.00 | 0.10 | 0.00 | 91 | 1010.4 |
| 20260903155519 | 56 | 309 | 0.0 | 2.0 | 0.00 | 0.10 | 0.00 | 93 | 1010.6 |
| 20260903155015 | 55 | 68 | 0.0 | 2.0 | 0.00 | 0.10 | 0.00 | 93 | 1010.5 |
| 20260903154537 | 55 | 68 | 0.0 | 4.0 | 0.00 | 0.10 | 0.00 | 92 | 1010.5 |
| 20260903154015 | 55 | 51 | 1.0 | 4.0 | 0.00 | 0.10 | 0.00 | 92 | 1010.4 |
| 20260903153516 | 55 | 80 | 0.0 | 3.0 | 0.00 | 0.10 | 0.00 | 94 | 1010.4 |
| 20260903153030 | 55 | 68 | 1.0 | 3.0 | 0.00 | 0.10 | 0.00 | 92 | 1010.4 |
| 20260903152514 | 55 | 68 | 0.0 | 4.0 | 0.00 | 0.10 | 0.00 | 94 | 1010.4 |
| 20260903152014 | 54 | 68 | 1.0 | 4.0 | 0.00 | 0.10 | 0.00 | 93 | 1010.4 |
| 20260903151529 | 54 | 131 | 1.0 | 3.0 | 0.00 | 0.10 | 0.00 | 95 | 1010.4 |
| 20260903151016 | 53 | 93 | 1.0 | 2.0 | 0.00 | 0.10 | 0.00 | 96 | 1010.4 |
| 20260903150516 | 53 | 68 | 0.0 | 2.0 | 0.00 | 0.10 | 0.00 | 96 | 1010.4 |
| 20260903150028 | 53 | 61 | 0.0 | 2.0 | 0.00 | 0.10 | 0.00 | 96 | 1010.3 |
| 20260903145513 | 53 | 51 | 0.0 | 1.0 | 0.00 | 0.10 | 0.00 | 96 | 1010.3 |
| 20260903145019 | 53 | 34 | 0.0 | 2.0 | 0.00 | 0.10 | 0.00 | 96 | 1010.3 |
| 20260903144541 | 53 | 61 | 0.0 | 2.0 | 0.00 | 0.10 | 0.00 | 96 | 1010.4 |
| 20260903144013 | 52 | 51 | 0.0 | 1.0 | 0.00 | 0.10 | 0.00 | 96 | 1010.3 |
| 20260903143512 | 52 | 51 | 0.0 | 1.0 | 0.00 | 0.10 | 0.00 | 96 | 1010.3 |
| 20260903143043 | 52 | 67 | 0.0 | 2.0 | 0.00 | 0.10 | 0.00 | 96 | 1010.2 |
| 20260903142513 | 52 | 76 | 0.0 | 2.0 | 0.00 | 0.10 | 0.00 | 96 | 1010.2 |
| 20260903142014 | 52 | 80 | 0.0 | 2.0 | 0.00 | 0.10 | 0.00 | 96 | 1010.1 |
| 20260903141529 | 52 | 68 | 0.0 | 2.0 | 0.00 | 0.10 | 0.00 | 95 | 1010.1 |
| 20260903141016 | 52 | 51 | 0.0 | 1.0 | 0.00 | 0.10 | 0.00 | 95 | 1010.1 |
| 20260903140516 | 52 | 76 | 0.0 | 1.0 | 0.00 | 0.10 | 0.00 | 95 | 1009.9 |
| 20260903140040 | 52 | 68 | 0.0 | 1.0 | 0.00 | 0.10 | 0.00 | 95 | 1009.9 |
| 20260903135519 | 52 | 51 | 0.0 | 1.0 | 0.00 | 0.10 | 0.00 | 95 | 1010.0 |
| 20260903135014 | 52 | 51 | 0.0 | 2.0 | 0.00 | 0.10 | 0.00 | 95 | 1009.9 |
| 20260903134531 | 52 | 9 | 0.0 | 2.0 | 0.00 | 0.10 | 0.00 | 95 | 1009.8 |
| 20260903134015 | 52 | 80 | 0.0 | 1.0 | 0.00 | 0.10 | 0.00 | 95 | 1009.8 |
| 20260903133519 | 52 | 9 | 0.0 | 1.0 | 0.00 | 0.10 | 0.00 | 95 | 1009.8 |
| 20260903133028 | 52 | 68 | 0.0 | 1.0 | 0.00 | 0.10 | 0.00 | 95 | 1009.8 |
| 20260903132515 | 52 | 51 | 0.0 | 2.0 | 0.00 | 0.10 | 0.00 | 95 | 1009.7 |
| 20260903132016 | 52 | 51 | 1.0 | 2.0 | 0.00 | 0.10 | 0.00 | 95 | 1009.7 |
| 20260903131532 | 52 | 51 | 0.0 | 2.0 | 0.00 | 0.10 | 0.00 | 95 | 1009.7 |
| 20260903131013 | 51 | 68 | 1.0 | 2.0 | 0.00 | 0.10 | 0.00 | 95 | 1009.7 |
| 20260903130514 | 51 | 51 | 0.0 | 1.0 | 0.00 | 0.10 | 0.00 | 95 | 1009.7 |
| 20260903130032 | 51 | 9 | 0.0 | 1.0 | 0.00 | 0.10 | 0.00 | 95 | 1009.7 |
| 20260903125512 | 51 | 178 | 0.0 | 1.0 | 0.00 | 0.10 | 0.00 | 95 | 1009.5 |
| 20260903125016 | 51 | 76 | 0.0 | 1.0 | 0.00 | 0.10 | 0.00 | 95 | 1009.4 |
| 20260903124531 | 51 | 68 | 0.0 | 1.0 | 0.00 | 0.10 | 0.00 | 95 | 1009.5 |
| 20260903124012 | 51 | 76 | 0.0 | 1.0 | 0.00 | 0.10 | 0.00 | 95 | 1009.4 |
| 20260903123514 | 51 | 9 | 0.0 | 1.0 | 0.00 | 0.10 | 0.00 | 95 | 1009.4 |
| 20260903123027 | 51 | 68 | 0.0 | 1.0 | 0.00 | 0.10 | 0.00 | 95 | 1009.3 |
| 20260903122514 | 51 | 34 | 0.0 | 1.0 | 0.00 | 0.10 | 0.00 | 95 | 1009.3 |
| 20260903122015 | 51 | 137 | 0.0 | 1.0 | 0.00 | 0.10 | 0.00 | 95 | 1009.3 |
| 20260903121535 | 51 | 34 | 0.0 | 2.0 | 0.00 | 0.10 | 0.00 | 95 | 1009.2 |
| 20260903121015 | 51 | 51 | 1.0 | 2.0 | 0.00 | 0.10 | 0.00 | 95 | 1009.3 |
| 20260903120514 | 51 | 93 | 0.0 | 1.0 | 0.00 | 0.10 | 0.00 | 95 | 1009.2 |
| 20260903120042 | 51 | 51 | 0.0 | 1.0 | 0.00 | 0.10 | 0.00 | 94 | 1009.2 |
| 20260903115515 | 51 | 9 | 0.0 | 1.0 | 0.00 | 0.10 | 0.00 | 94 | 1009.2 |
| 20260903115016 | 51 | 9 | 0.0 | 1.0 | 0.00 | 0.10 | 0.00 | 94 | 1009.2 |
| 20260903114528 | 51 | 51 | 0.0 | 1.0 | 0.00 | 0.10 | 0.00 | 94 | 1009.2 |
| 20260903114013 | 51 | 51 | 0.0 | 1.0 | 0.00 | 0.10 | 0.00 | 94 | 1009.2 |
| 20260903113513 | 51 | 51 | 0.0 | 2.0 | 0.00 | 0.10 | 0.00 | 94 | 1009.2 |
| 20260903113055 | 51 | 51 | 0.0 | 2.0 | 0.00 | 0.10 | 0.00 | 94 | 1009.1 |
| 20260903112514 | 51 | 51 | 0.0 | 1.0 | 0.00 | 0.10 | 0.00 | 94 | 1009.1 |
| 20260903112017 | 51 | 61 | 0.0 | 1.0 | 0.00 | 0.10 | 0.00 | 94 | 1009.1 |
| 20260903111529 | 51 | 51 | 0.0 | 2.0 | 0.00 | 0.10 | 0.00 | 94 | 1009.1 |
| 20260903111014 | 51 | 68 | 0.0 | 2.0 | 0.00 | 0.10 | 0.00 | 94 | 1009.2 |
| 20260903110516 | 51 | 76 | 0.0 | 1.0 | 0.00 | 0.10 | 0.00 | 95 | 1009.2 |
| 20260903110030 | 51 | 67 | 0.0 | 1.0 | 0.00 | 0.10 | 0.00 | 95 | 1009.1 |
| 20260903105516 | 51 | 51 | 0.0 | 1.0 | 0.00 | 0.10 | 0.00 | 95 | 1009.1 |
| 20260903105013 | 51 | 51 | 0.0 | 1.0 | 0.00 | 0.10 | 0.00 | 95 | 1009.1 |
| 20260903104551 | 51 | 212 | 0.0 | 2.0 | 0.00 | 0.10 | 0.00 | 95 | 1009.1 |
| 20260903104014 | 51 | 34 | 0.0 | 2.0 | 0.00 | 0.10 | 0.00 | 95 | 1009.1 |
| 20260903103514 | 51 | 51 | 0.0 | 1.0 | 0.00 | 0.10 | 0.00 | 95 | 1009.1 |
| 20260903103034 | 51 | 61 | 0.0 | 2.0 | 0.00 | 0.10 | 0.00 | 95 | 1009.2 |
| 20260903102514 | 51 | 34 | 0.0 | 2.0 | 0.00 | 0.10 | 0.00 | 95 | 1009.2 |
| 20260903102015 | 51 | 291 | 0.0 | 1.0 | 0.00 | 0.10 | 0.00 | 95 | 1009.2 |
| 20260903101531 | 51 | 51 | 0.0 | 2.0 | 0.00 | 0.10 | 0.00 | 95 | 1009.2 |
| 20260903101013 | 51 | 51 | 0.0 | 2.0 | 0.00 | 0.10 | 0.00 | 95 | 1009.2 |
| 20260903100515 | 51 | 51 | 0.0 | 1.0 | 0.00 | 0.10 | 0.00 | 95 | 1009.2 |
| 20260903100038 | 51 | 93 | 0.0 | 1.0 | 0.00 | 0.10 | 0.00 | 95 | 1009.2 |
| 20260903095513 | 51 | 93 | 0.0 | 1.0 | 0.00 | 0.10 | 0.00 | 95 | 1009.2 |
| 20260903095014 | 51 | 51 | 0.0 | 1.0 | 0.00 | 0.10 | 0.00 | 95 | 1009.1 |
| 20260903094545 | 51 | 51 | 0.0 | 2.0 | 0.00 | 0.10 | 0.00 | 95 | 1009.1 |
| 20260903094022 | 51 | 51 | 0.0 | 2.0 | 0.00 | 0.10 | 0.00 | 95 | 1009.1 |
| 20260903093512 | 51 | 51 | 0.0 | 2.0 | 0.00 | 0.10 | 0.00 | 95 | 1009.1 |
| 20260903093034 | 51 | 34 | 0.0 | 2.0 | 0.00 | 0.10 | 0.00 | 94 | 1009.1 |
| 20260903092513 | 51 | 41 | 1.0 | 2.0 | 0.00 | 0.10 | 0.00 | 94 | 1009.1 |
| 20260903092014 | 51 | 68 | 0.0 | 2.0 | 0.00 | 0.10 | 0.00 | 94 | 1009.0 |
| 20260903091543 | 51 | 61 | 0.0 | 2.0 | 0.00 | 0.10 | 0.00 | 94 | 1009.0 |
| 20260903091015 | 51 | 41 | 0.0 | 2.0 | 0.00 | 0.10 | 0.00 | 94 | 1008.9 |
| 20260903090514 | 51 | 93 | 0.0 | 1.0 | 0.00 | 0.10 | 0.00 | 94 | 1008.9 |
| 20260903090041 | 51 | 68 | 0.0 | 1.0 | 0.00 | 0.10 | 0.00 | 94 | 1009.0 |
| 20260903085515 | 51 | 61 | 0.0 | 2.0 | 0.00 | 0.10 | 0.00 | 94 | 1008.9 |
| 20260903085012 | 51 | 51 | 0.0 | 2.0 | 0.00 | 0.10 | 0.00 | 94 | 1009.0 |
| 20260903084530 | 51 | 44 | 1.0 | 2.0 | 0.00 | 0.10 | 0.00 | 94 | 1009.0 |
| 20260903084015 | 51 | 61 | 0.0 | 1.0 | 0.00 | 0.10 | 0.00 | 94 | 1009.0 |
| 20260903083515 | 51 | 51 | 0.0 | 2.0 | 0.00 | 0.10 | 0.00 | 94 | 1008.9 |
| 20260903083029 | 51 | 51 | 0.0 | 2.0 | 0.00 | 0.10 | 0.00 | 94 | 1009.0 |
| 20260903082515 | 51 | 34 | 1.0 | 2.0 | 0.00 | 0.10 | 0.00 | 94 | 1008.9 |
| 20260903082016 | 51 | 68 | 0.0 | 2.0 | 0.00 | 0.10 | 0.00 | 94 | 1008.9 |
| 20260903081532 | 51 | 34 | 1.0 | 2.0 | 0.00 | 0.10 | 0.00 | 94 | 1008.9 |
| 20260903081013 | 51 | 76 | 0.0 | 1.0 | 0.00 | 0.10 | 0.00 | 94 | 1008.8 |
| 20260903080515 | 51 | 51 | 0.0 | 1.0 | 0.00 | 0.10 | 0.00 | 94 | 1008.8 |
| 20260903080032 | 51 | 51 | 0.0 | 1.0 | 0.00 | 0.10 | 0.00 | 94 | 1008.9 |
| 20260903075512 | 51 | 93 | 0.0 | 2.0 | 0.00 | 0.10 | 0.00 | 94 | 1008.8 |
| 20260903075012 | 52 | 93 | 0.0 | 2.0 | 0.00 | 0.10 | 0.00 | 94 | 1008.8 |
| 20260903074531 | 52 | 178 | 0.0 | 1.0 | 0.00 | 0.10 | 0.00 | 94 | 1008.9 |
| 20260903074014 | 52 | 205 | 0.0 | 1.0 | 0.00 | 0.10 | 0.00 | 94 | 1008.8 |
| 20260903073512 | 52 | 51 | 0.0 | 1.0 | 0.00 | 0.10 | 0.00 | 94 | 1008.8 |
| 20260903073033 | 52 | 51 | 0.0 | 1.0 | 0.00 | 0.10 | 0.00 | 94 | 1008.8 |
| 20260903072513 | 52 | 360 | 0.0 | 1.0 | 0.00 | 0.10 | 0.00 | 94 | 1008.9 |
| 20260903072014 | 52 | 93 | 0.0 | 1.0 | 0.00 | 0.10 | 0.00 | 94 | 1008.9 |
| 20260903071540 | 52 | 93 | 0.0 | 1.0 | 0.00 | 0.10 | 0.00 | 94 | 1008.9 |
| 20260903071015 | 52 | 41 | 0.0 | 1.0 | 0.00 | 0.10 | 0.00 | 94 | 1008.9 |
| 20260903070514 | 52 | 51 | 0.0 | 1.0 | 0.00 | 0.10 | 0.00 | 94 | 1008.8 |
| 20260903070034 | 52 | 68 | 0.0 | 2.0 | 0.00 | 0.10 | 0.00 | 94 | 1008.8 |
| 20260903065516 | 52 | 153 | 0.0 | 2.0 | 0.00 | 0.10 | 0.10 | 93 | 1008.8 |
| 20260903065012 | 52 | 137 | 0.0 | 1.0 | 0.00 | 0.10 | 0.10 | 93 | 1008.7 |
| 20260903064528 | 52 | 51 | 0.0 | 1.0 | 0.00 | 0.10 | 0.10 | 93 | 1008.7 |
| 20260903064014 | 52 | 51 | 0.0 | 1.0 | 0.00 | 0.10 | 0.10 | 93 | 1008.6 |
| 20260903063514 | 52 | 93 | 0.0 | 1.0 | 0.00 | 0.10 | 0.10 | 93 | 1008.6 |
| 20260903063030 | 52 | 137 | 0.0 | 1.0 | 0.00 | 0.10 | 0.10 | 93 | 1008.6 |
| 20260903062515 | 52 | 51 | 0.0 | 1.0 | 0.00 | 0.10 | 0.10 | 93 | 1008.6 |
| 20260903062011 | 52 | 34 | 0.0 | 1.0 | 0.00 | 0.10 | 0.10 | 93 | 1008.6 |
| 20260903061528 | 52 | 51 | 0.0 | 2.0 | 0.00 | 0.10 | 0.10 | 93 | 1008.5 |
| 20260903061019 | 52 | 51 | 0.0 | 2.0 | 0.00 | 0.10 | 0.10 | 93 | 1008.5 |
| 20260903060516 | 52 | 93 | 0.0 | 2.0 | 0.00 | 0.10 | 0.10 | 93 | 1008.5 |
| 20260903060029 | 53 | 137 | 0.0 | 1.0 | 0.00 | 0.10 | 0.10 | 92 | 1008.5 |
| 20260903055513 | 53 | 119 | 0.0 | 1.0 | 0.00 | 0.10 | 0.10 | 92 | 1008.6 |
| 20260903055017 | 53 | 178 | 0.0 | 1.0 | 0.00 | 0.10 | 0.10 | 92 | 1008.5 |
| 20260903054532 | 53 | 265 | 0.0 | 1.0 | 0.00 | 0.10 | 0.10 | 92 | 1008.5 |
| 20260903054014 | 53 | 9 | 0.0 | 1.0 | 0.00 | 0.10 | 0.10 | 92 | 1008.6 |
| 20260903053514 | 53 | 51 | 0.0 | 1.0 | 0.00 | 0.10 | 0.10 | 92 | 1008.7 |
| 20260903053030 | 53 | 93 | 0.0 | 3.0 | 0.00 | 0.10 | 0.10 | 92 | 1008.7 |
| 20260903052516 | 54 | 126 | 0.0 | 3.0 | 0.00 | 0.10 | 0.10 | 92 | 1008.7 |
| 20260903052016 | 54 | 129 | 0.0 | 2.0 | 0.00 | 0.10 | 0.10 | 92 | 1008.6 |
| 20260903051547 | 54 | 51 | 0.0 | 3.0 | 0.00 | 0.10 | 0.10 | 92 | 1008.6 |
| 20260903051017 | 54 | 108 | 1.0 | 5.0 | 0.00 | 0.10 | 0.10 | 92 | 1008.6 |
| 20260903050519 | 54 | 93 | 0.0 | 5.0 | 0.00 | 0.10 | 0.10 | 92 | 1008.5 |
| 20260903050037 | 54 | 169 | 1.0 | 5.0 | 0.00 | 0.10 | 0.10 | 92 | 1008.6 |
| 20260903045514 | 54 | 153 | 0.0 | 4.0 | 0.00 | 0.10 | 0.10 | 93 | 1008.6 |
| 20260903045019 | 54 | 126 | 1.0 | 4.0 | 0.00 | 0.10 | 0.10 | 93 | 1008.6 |
| 20260903044539 | 54 | 144 | 1.0 | 3.0 | 0.00 | 0.10 | 0.10 | 93 | 1008.5 |
| 20260903044015 | 54 | 111 | 1.0 | 3.0 | 0.00 | 0.10 | 0.10 | 93 | 1008.4 |
| 20260903043516 | 54 | 119 | 1.0 | 3.0 | 0.00 | 0.10 | 0.10 | 93 | 1008.3 |
| 20260903043107 | 54 | 153 | 0.0 | 2.0 | 0.00 | 0.10 | 0.10 | 93 | 1008.3 |
| 20260903042517 | 54 | 120 | 0.0 | 2.0 | 0.00 | 0.10 | 0.10 | 93 | 1008.3 |
| 20260903042013 | 54 | 93 | 0.0 | 2.0 | 0.00 | 0.10 | 0.10 | 93 | 1008.1 |
| 20260903041531 | 54 | 137 | 0.0 | 3.0 | 0.00 | 0.10 | 0.10 | 92 | 1008.0 |
| 20260903041013 | 55 | 108 | 0.0 | 4.0 | 0.00 | 0.10 | 0.10 | 92 | 1008.0 |
| 20260903040515 | 55 | 196 | 1.0 | 4.0 | 0.00 | 0.10 | 0.10 | 92 | 1008.1 |
| 20260903040032 | 55 | 153 | 0.0 | 6.0 | 0.00 | 0.10 | 0.10 | 92 | 1008.1 |
| 20260903035511 | 55 | 51 | 0.0 | 7.0 | 0.00 | 0.10 | 0.10 | 92 | 1008.0 |
| 20260903035013 | 55 | 119 | 0.0 | 7.0 | 0.00 | 0.10 | 0.10 | 92 | 1007.9 |
| 20260903034537 | 55 | 132 | 1.0 | 4.0 | 0.00 | 0.10 | 0.10 | 92 | 1007.8 |
| 20260903034016 | 55 | 144 | 0.0 | 4.0 | 0.00 | 0.10 | 0.10 | 92 | 1007.7 |
| 20260903033515 | 56 | 108 | 0.0 | 6.0 | 0.00 | 0.10 | 0.10 | 92 | 1007.6 |
| 20260903033027 | 55 | 164 | 2.0 | 6.0 | 0.00 | 0.10 | 0.10 | 92 | 1007.5 |
| 20260903032515 | 55 | 137 | 1.0 | 2.0 | 0.00 | 0.10 | 0.10 | 92 | 1007.4 |
| 20260903032017 | 56 | 115 | 1.0 | 2.0 | 0.00 | 0.10 | 0.10 | 92 | 1007.4 |
| 20260903031518 | 56 | 217 | 1.0 | 4.0 | 0.00 | 0.10 | 0.10 | 92 | 1007.3 |
| 20260903031008 | 56 | 137 | 1.0 | 5.0 | 0.00 | 0.10 | 0.10 | 91 | 1007.3 |
| 20260903030508 | 56 | 141 | 0.0 | 5.0 | 0.00 | 0.10 | 0.10 | 91 | 1007.2 |
| 20260903030021 | 56 | 108 | 1.0 | 9.0 | 0.00 | 0.10 | 0.10 | 90 | 1007.1 |
| 20260903025509 | 57 | 123 | 1.0 | 9.0 | 0.00 | 0.10 | 0.10 | 90 | 1007.0 |
| 20260903025009 | 57 | 221 | 1.0 | 6.0 | 0.00 | 0.10 | 0.10 | 91 | 1006.9 |
| 20260903024524 | 57 | 126 | 2.0 | 6.0 | 0.00 | 0.10 | 0.10 | 91 | 1006.8 |
| 20260903024010 | 57 | 124 | 1.0 | 6.0 | 0.00 | 0.10 | 0.10 | 91 | 1006.9 |
| 20260903023511 | 57 | 126 | 1.0 | 5.0 | 0.00 | 0.10 | 0.10 | 91 | 1006.8 |
| 20260903023022 | 58 | 93 | 1.0 | 7.0 | 0.00 | 0.10 | 0.10 | 91 | 1006.7 |
| 20260903022512 | 58 | 162 | 2.0 | 10.0 | 0.00 | 0.10 | 0.10 | 91 | 1006.6 |
| 20260903022011 | 58 | 123 | 2.0 | 10.0 | 0.00 | 0.10 | 0.10 | 91 | 1006.5 |
| 20260903021525 | 58 | 170 | 2.0 | 8.0 | 0.00 | 0.10 | 0.10 | 92 | 1006.5 |
| 20260903021009 | 58 | 178 | 1.0 | 9.0 | 0.00 | 0.10 | 0.10 | 92 | 1006.6 |
| 20260903020511 | 58 | 115 | 1.0 | 9.0 | 0.00 | 0.10 | 0.10 | 92 | 1006.6 |
| 20260903020025 | 58 | 144 | 1.0 | 8.0 | 0.00 | 0.10 | 0.10 | 92 | 1006.5 |
| 20260903015510 | 58 | 150 | 3.0 | 6.0 | 0.00 | 0.10 | 0.10 | 92 | 1006.5 |
| 20260903015009 | 58 | 80 | 1.0 | 6.0 | 0.00 | 0.10 | 0.10 | 92 | 1006.3 |
| 20260903014524 | 58 | 123 | 2.0 | 7.0 | 0.00 | 0.10 | 0.10 | 92 | 1006.2 |
| 20260903014014 | 58 | 133 | 2.0 | 7.0 | 0.00 | 0.10 | 0.10 | 92 | 1006.1 |
| 20260903013513 | 58 | 129 | 0.0 | 3.0 | 0.00 | 0.10 | 0.10 | 92 | 1006.0 |
| 20260903013024 | 58 | 221 | 0.0 | 2.0 | 0.00 | 0.10 | 0.10 | 93 | 1005.7 |
| 20260903012511 | 58 | 221 | 0.0 | 2.0 | 0.00 | 0.10 | 0.10 | 93 | 1005.6 |
| 20260903012012 | 58 | 68 | 0.0 | 2.0 | 0.00 | 0.10 | 0.10 | 93 | 1005.4 |
| 20260903011523 | 58 | 221 | 0.0 | 2.0 | 0.00 | 0.10 | 0.10 | 93 | 1005.3 |
| 20260903011010 | 58 | 93 | 0.0 | 2.0 | 0.01 | 0.10 | 0.10 | 93 | 1005.1 |
| 20260903010512 | 58 | 51 | 0.0 | 2.0 | 0.01 | 0.10 | 0.10 | 93 | 1005.1 |
| 20260903010026 | 58 | 162 | 0.0 | 2.0 | 0.02 | 0.10 | 0.10 | 93 | 1005.1 |
| 20260903005509 | 58 | 221 | 0.0 | 1.0 | 0.03 | 0.10 | 0.10 | 93 | 1005.1 |
| 20260903005010 | 58 | 93 | 0.0 | 2.0 | 0.04 | 0.10 | 0.10 | 93 | 1005.1 |
| 20260903004528 | 58 | 51 | 0.0 | 3.0 | 0.05 | 0.10 | 0.10 | 93 | 1005.1 |
| 20260903004012 | 58 | 93 | 1.0 | 3.0 | 0.06 | 0.10 | 0.10 | 93 | 1005.1 |
| 20260903003511 | 58 | 51 | 0.0 | 2.0 | 0.07 | 0.10 | 0.10 | 93 | 1005.1 |
| 20260903003027 | 58 | 129 | 0.0 | 3.0 | 0.08 | 0.10 | 0.10 | 93 | 1005.2 |
| 20260903002512 | 58 | 146 | 0.0 | 3.0 | 0.09 | 0.10 | 0.10 | 92 | 1005.4 |
| 20260903002015 | 58 | 137 | 1.0 | 3.0 | 0.09 | 0.10 | 0.10 | 92 | 1005.5 |
| 20260903001527 | 58 | 93 | 0.0 | 2.0 | 0.09 | 0.10 | 0.10 | 92 | 1005.7 |